Location: Most
(50.5133°N, 13.6207°E)
Time: 01:36:46
(UTC+01:00)

Oscar 11 - Pass Details

Date: 07 December 2021
Orbit: 611 x 625 km, 97.6° (Epoch: 17 January)

Event Time Altitude Azimuth Distance (km) Brightness Sun altitude
Rises 05:08:27 0° 18° (NNE) 2,918 10.7 -24.8°
Reaches altitude 10° 05:10:45 10° 25° (NNE) 2,004 9.9 -24.5°
Maximum altitude 05:14:55 43° 98° (E) 878 8.2 -23.8°
Drops below altitude 10° 05:19:01 10° 170° (S) 1,980 9.8 -23.2°
Sets 05:21:17 0° 177° (S) 2,878 10.6 -22.8°
